Fairfield, IL

3:47 AM CDT on April 25, 2018 (GMT -0500)
Fairfield Municipal

Weather History for KFWC - April, 2014

Change the Weather History Date:

Friday, April 18, 2014

  Actual Average (KEVV) Record (KEVV)
Temperature  
Mean Temperature 58 °F -  
Max Temperature 71 °F 70 °F 87 °F (1971)
Min Temperature 44 °F 46 °F 26 °F (2001)
Degree Days  
Heating Degree Days 8    
Growing Degree Days 8 (Base 50)    
Moisture  
Dew Point 45 °F    
Average Humidity 63    
Maximum Humidity 93    
Minimum Humidity 38    
Precipitation  
Precipitation 0.00 in - - ()
Sea Level Pressure  
Sea Level Pressure 30.25 in    
Wind  
Wind Speed 2 mph (NNW)    
Max Wind Speed 9 mph    
Max Gust Speed -    
Visibility 10 miles    
Events      
Averages and records for this station are not official NWS values.
T = Trace of Precipitation, MM = Missing Value Source: NWS Daily Summary

Daily Weather History Graph

Daily Weather History Graph

Search for Another Location

Airport or City:

Astronomy

Apr. 18, 2014 Rise Set
Actual Time 6:13 AM CDT 7:32 PM CDT
Civil Twilight 5:46 AM CDT 8:00 PM CDT
Nautical Twilight 5:13 AM CDT 8:33 PM CDT
Astronomical Twilight 4:38 AM CDT 9:08 PM CDT
Moon 11:16 PM CDT (4/18) 8:37 AM CDT (4/18)
Length of Visible Light 14h 14m
Length of Day
13h 19m
Waning Gibbous, 87% of the Moon is Illuminated
Apr 18
Waning Gibbous
Apr 22
Last Quarter
Apr 29
New
May 6
First Quarter
May 14
Full

Hourly Weather History & Observations

Time (CDT) Temp. Dew Point Humidity Pressure Visibility Wind Dir Wind Speed Gust Speed Precip Events Conditions
12:15 AM 48.2 °F 42.8 °F 82% 30.25 in 10.0 mi Calm Calm - N/A   Clear
12:35 AM 48.2 °F 42.8 °F 82% 30.25 in 10.0 mi Calm Calm - N/A   Clear
12:55 AM 48.2 °F 42.8 °F 82% 30.25 in 10.0 mi Calm Calm - N/A   Clear
1:15 AM 46.4 °F 42.8 °F 87% 30.24 in 10.0 mi Calm Calm - N/A   Clear
1:35 AM 48.2 °F 42.8 °F 82% 30.25 in 10.0 mi Calm Calm - N/A   Clear
1:55 AM 46.4 °F 42.8 °F 87% 30.25 in 10.0 mi Calm Calm - N/A   Clear
2:15 AM 44.6 °F 42.8 °F 93% 30.26 in 10.0 mi Calm Calm - N/A   Clear
2:35 AM 46.4 °F 42.8 °F 87% 30.26 in 10.0 mi Calm Calm - N/A   Clear
2:55 AM 44.6 °F 42.8 °F 93% 30.26 in 10.0 mi Calm Calm - N/A   Clear
3:15 AM 44.6 °F 41.0 °F 87% 30.26 in 10.0 mi Calm Calm - N/A   Clear
3:35 AM 44.6 °F 41.0 °F 87% 30.26 in 10.0 mi Calm Calm - N/A   Clear
3:55 AM 44.6 °F 42.8 °F 93% 30.26 in 10.0 mi Calm Calm - N/A   Clear
4:15 AM 44.6 °F 42.8 °F 93% 30.26 in 10.0 mi Calm Calm - N/A   Scattered Clouds
4:35 AM 46.4 °F 42.8 °F 87% 30.26 in 10.0 mi Calm Calm - N/A   Scattered Clouds
4:55 AM 46.4 °F 42.8 °F 87% 30.26 in 10.0 mi Calm Calm - N/A   Mostly Cloudy
5:15 AM 46.4 °F 42.8 °F 87% 30.26 in 10.0 mi Calm Calm - N/A   Scattered Clouds
5:35 AM 46.4 °F 44.6 °F 93% 30.26 in 10.0 mi Calm Calm - N/A   Clear
5:55 AM 48.2 °F 44.6 °F 87% 30.26 in 10.0 mi Calm Calm - N/A   Clear
6:15 AM 48.2 °F 44.6 °F 87% 30.26 in 10.0 mi Calm Calm - N/A   Clear
6:35 AM 48.2 °F 44.6 °F 87% 30.26 in 10.0 mi Calm Calm - N/A   Clear
6:55 AM 48.2 °F 44.6 °F 87% 30.26 in 10.0 mi Calm Calm - N/A   Clear
7:15 AM 50.0 °F 44.6 °F 82% 30.27 in 10.0 mi WNW 3.5 mph - N/A   Clear
7:35 AM 51.8 °F 46.4 °F 82% 30.28 in 10.0 mi North 3.5 mph - N/A   Clear
7:55 AM 53.6 °F 46.4 °F 77% 30.28 in 10.0 mi Calm Calm - N/A   Clear
8:15 AM 55.4 °F 46.4 °F 72% 30.28 in 10.0 mi Calm Calm - N/A   Clear
8:35 AM 57.2 °F 46.4 °F 67% 30.28 in 10.0 mi Calm Calm - N/A   Clear
8:55 AM 57.2 °F 46.4 °F 67% 30.28 in 10.0 mi Calm Calm - N/A   Clear
9:15 AM 60.8 °F 48.2 °F 63% 30.28 in 10.0 mi Calm Calm - N/A   Clear
9:35 AM 62.6 °F 48.2 °F 59% 30.29 in 10.0 mi Calm Calm - N/A   Clear
9:55 AM 64.4 °F 48.2 °F 56% 30.29 in 10.0 mi Calm Calm - N/A   Clear
10:15 AM 64.4 °F 46.4 °F 52% 30.30 in 10.0 mi WSW 3.5 mph - N/A   Clear
10:35 AM 66.2 °F 46.4 °F 49% 30.30 in 10.0 mi West 4.6 mph - N/A   Clear
10:55 AM 66.2 °F 46.4 °F 49% 30.30 in 10.0 mi West 4.6 mph - N/A   Clear
11:15 AM 66.2 °F 46.4 °F 49% 30.29 in 10.0 mi WSW 5.8 mph - N/A   Clear
11:35 AM 66.2 °F 46.4 °F 49% 30.29 in 10.0 mi Calm Calm - N/A   Clear
11:55 AM 68.0 °F 46.4 °F 46% 30.29 in 10.0 mi Calm Calm - N/A   Clear
12:15 PM 68.0 °F 44.6 °F 43% 30.29 in 10.0 mi Calm Calm - N/A   Clear
12:35 PM 69.8 °F 44.6 °F 40% 30.28 in 10.0 mi WSW 3.5 mph - N/A   Clear
12:55 PM 69.8 °F 48.2 °F 46% 30.28 in 10.0 mi NNW 3.5 mph - N/A   Clear
1:15 PM 69.8 °F 44.6 °F 40% 30.28 in 10.0 mi NNW 3.5 mph - N/A   Clear
1:35 PM 69.8 °F 46.4 °F 43% 30.27 in 10.0 mi West 5.8 mph - N/A   Scattered Clouds
1:55 PM 69.8 °F 48.2 °F 46% 30.26 in 10.0 mi North 6.9 mph - N/A   Scattered Clouds
2:15 PM 69.8 °F 46.4 °F 43% 30.26 in 10.0 mi NNE 5.8 mph - N/A   Scattered Clouds
2:35 PM 69.8 °F 44.6 °F 40% 30.26 in 10.0 mi NNW 3.5 mph - N/A   Scattered Clouds
2:55 PM 71.6 °F 46.4 °F 41% 30.25 in 10.0 mi North 6.9 mph - N/A   Mostly Cloudy
3:15 PM 69.8 °F 46.4 °F 43% 30.24 in 10.0 mi North 6.9 mph - N/A   Mostly Cloudy
3:35 PM 71.6 °F 46.4 °F 41% 30.23 in 10.0 mi North 5.8 mph - N/A   Scattered Clouds
3:55 PM 69.8 °F 44.6 °F 40% 30.23 in 10.0 mi North 8.1 mph - N/A   Scattered Clouds
4:15 PM 71.6 °F 44.6 °F 38% 30.22 in 10.0 mi North 5.8 mph - N/A   Clear
4:35 PM 71.6 °F 44.6 °F 38% 30.21 in 10.0 mi North 5.8 mph - N/A   Clear
4:55 PM 71.6 °F 44.6 °F 38% 30.21 in 10.0 mi NW 9.2 mph - N/A   Scattered Clouds
5:15 PM 69.8 °F 44.6 °F 40% 30.21 in 10.0 mi NE 8.1 mph - N/A   Scattered Clouds
5:35 PM 69.8 °F 44.6 °F 40% 30.21 in 10.0 mi NNE 8.1 mph - N/A   Clear
5:55 PM 69.8 °F 42.8 °F 38% 30.20 in 10.0 mi North 5.8 mph - N/A   Clear
6:15 PM 69.8 °F 44.6 °F 40% 30.21 in 10.0 mi North 5.8 mph - N/A   Clear
6:35 PM 68.0 °F 44.6 °F 43% 30.21 in 10.0 mi North 4.6 mph - N/A   Clear
6:55 PM 66.2 °F 46.4 °F 49% 30.21 in 10.0 mi NE 5.8 mph - N/A   Clear
7:15 PM 66.2 °F 44.6 °F 46% 30.21 in 7.0 mi Calm Calm - N/A   Clear
7:35 PM 66.2 °F 42.8 °F 43% 30.21 in 10.0 mi Calm Calm - N/A   Clear
7:55 PM 62.6 °F 46.4 °F 55% 30.22 in 10.0 mi Calm Calm - N/A   Clear
8:15 PM 60.8 °F 48.2 °F 63% 30.22 in 10.0 mi North 3.5 mph - N/A   Clear
8:35 PM 60.8 °F 46.4 °F 59% 30.22 in 10.0 mi North 5.8 mph - N/A   Clear
8:55 PM 62.6 °F 46.4 °F 55% 30.22 in 10.0 mi North 4.6 mph - N/A   Clear
9:15 PM 60.8 °F 46.4 °F 59% 30.23 in 10.0 mi North 5.8 mph - N/A   Clear
9:35 PM 60.8 °F 46.4 °F 59% 30.23 in 10.0 mi North 5.8 mph - N/A   Clear
9:55 PM 59.0 °F 46.4 °F 63% 30.23 in 10.0 mi North 4.6 mph - N/A   Clear
10:15 PM 59.0 °F 46.4 °F 63% 30.23 in 10.0 mi North 3.5 mph - N/A   Clear
10:35 PM 57.2 °F 46.4 °F 67% 30.23 in 10.0 mi North 4.6 mph - N/A   Clear
10:55 PM 57.2 °F 46.4 °F 67% 30.23 in 10.0 mi North 5.8 mph - N/A   Clear
11:15 PM 57.2 °F 46.4 °F 67% 30.24 in 10.0 mi North 3.5 mph - N/A   Clear
11:35 PM 57.2 °F 44.6 °F 63% 30.24 in 10.0 mi North 5.8 mph - N/A   Clear
11:55 PM 55.4 °F 46.4 °F 72% 30.24 in 10.0 mi North 5.8 mph - N/A   Clear